| time (UTC) | temp F | wind direction | speed MPH | gust MPH | rain 1hr in | rain 24hr in | rain mn in | humidity % | barometer mb |
| 20260510230516 | 66 | 13 | 1.0 | 5.0 | 0.00 | 0.00 | 0.00 | 56 | 1012.1 |
| 20260510225516 | 66 | 213 | 0.0 | 1.0 | 0.00 | 0.00 | 0.00 | 51 | 1012.0 |
| 20260510224516 | 67 | 231 | 0.0 | 1.0 | 0.00 | 0.00 | 0.00 | 47 | 1011.8 |
| 20260510223516 | 67 | 226 | 1.0 | 2.0 | 0.00 | 0.00 | 0.00 | 46 | 1011.7 |
| 20260510222517 | 67 | 223 | 0.0 | 2.0 | 0.00 | 0.00 | 0.00 | 47 | 1011.5 |
| 20260510221517 | 67 | 258 | 0.0 | 2.0 | 0.00 | 0.00 | 0.00 | 49 | 1011.3 |
| 20260510220517 | 68 | 243 | 0.0 | 2.0 | 0.00 | 0.01 | 0.00 | 49 | 1010.9 |
| 20260510215518 | 68 | 240 | 0.0 | 2.0 | 0.00 | 0.02 | 0.00 | 52 | 1010.8 |
| 20260510214517 | 69 | 220 | 0.0 | 2.0 | 0.00 | 0.03 | 0.00 | 49 | 1010.6 |
| 20260510213515 | 70 | 220 | 1.0 | 2.0 | 0.00 | 0.05 | 0.00 | 47 | 1010.6 |
| 20260510212516 | 71 | 258 | 1.0 | 3.0 | 0.00 | 0.05 | 0.00 | 46 | 1010.7 |
| 20260510211556 | 71 | 235 | 1.0 | 3.0 | 0.00 | 0.06 | 0.00 | 47 | 1010.6 |
| 20260510210518 | 71 | 186 | 0.0 | 3.0 | 0.00 | 0.07 | 0.00 | 48 | 1010.6 |
| 20260510205515 | 71 | 233 | 0.0 | 2.0 | 0.00 | 0.08 | 0.00 | 50 | 1010.5 |
| 20260510204515 | 71 | 173 | 1.0 | 3.0 | 0.00 | 0.09 | 0.00 | 52 | 1010.4 |
| 20260510203515 | 71 | 197 | 1.0 | 3.0 | 0.00 | 0.10 | 0.00 | 52 | 1010.4 |
| 20260510202516 | 70 | 354 | 0.0 | 3.0 | 0.00 | 0.11 | 0.00 | 55 | 1010.3 |
| 20260510201516 | 71 | 275 | 1.0 | 3.0 | 0.00 | 0.11 | 0.00 | 53 | 1010.5 |
| 20260510200516 | 70 | 257 | 1.0 | 3.0 | 0.00 | 0.11 | 0.00 | 54 | 1010.5 |
| 20260510195516 | 70 | 276 | 0.0 | 2.0 | 0.00 | 0.11 | 0.00 | 56 | 1010.6 |
| 20260510194557 | 69 | 227 | 0.0 | 2.0 | 0.00 | 0.11 | 0.00 | 59 | 1010.6 |
| 20260510193536 | 69 | 292 | 0.0 | 2.0 | 0.00 | 0.11 | 0.00 | 60 | 1010.7 |
| 20260510192516 | 69 | 25 | 0.0 | 2.0 | 0.00 | 0.11 | 0.00 | 59 | 1010.7 |
| 20260510191516 | 70 | 349 | 0.0 | 2.0 | 0.00 | 0.11 | 0.00 | 57 | 1010.8 |
| 20260510190517 | 71 | 352 | 0.0 | 2.0 | 0.00 | 0.11 | 0.00 | 56 | 1010.8 |
| 20260510185537 | 72 | 311 | 0.0 | 2.0 | 0.00 | 0.11 | 0.00 | 51 | 1010.7 |
| 20260510184517 | 72 | 283 | 0.0 | 2.0 | 0.00 | 0.11 | 0.00 | 52 | 1010.7 |
| 20260510183517 | 73 | 223 | 1.0 | 3.0 | 0.00 | 0.11 | 0.00 | 54 | 1010.6 |
| 20260510182517 | 73 | 60 | 0.0 | 3.0 | 0.00 | 0.11 | 0.00 | 56 | 1010.6 |
| 20260510181518 | 72 | 259 | 1.0 | 3.0 | 0.00 | 0.12 | 0.00 | 58 | 1010.8 |
| 20260510180515 | 71 | 240 | 1.0 | 3.0 | 0.00 | 0.12 | 0.00 | 60 | 1010.9 |
| 20260510175518 | 71 | 308 | 0.0 | 3.0 | 0.00 | 0.12 | 0.00 | 61 | 1011.0 |
| 20260510174521 | 72 | 310 | 1.0 | 3.0 | 0.00 | 0.13 | 0.00 | 58 | 1011.1 |
| 20260510173516 | 71 | 266 | 1.0 | 4.0 | 0.00 | 0.13 | 0.00 | 59 | 1011.2 |
| 20260510172525 | 68 | 330 | 0.0 | 1.0 | 0.00 | 0.13 | 0.00 | 64 | 1011.3 |
| 20260510171525 | 67 | 253 | 1.0 | 2.0 | 0.00 | 0.14 | 0.00 | 67 | 1011.5 |
| 20260510170525 | 68 | 288 | 1.0 | 1.0 | 0.00 | 0.14 | 0.00 | 66 | 1011.6 |
| 20260510165525 | 69 | 54 | 1.0 | 3.0 | 0.00 | 0.15 | 0.00 | 65 | 1011.7 |
| 20260510164525 | 68 | 220 | 1.0 | 4.0 | 0.00 | 0.15 | 0.00 | 66 | 1011.8 |
| 20260510163545 | 67 | 254 | 1.0 | 2.0 | 0.00 | 0.15 | 0.00 | 69 | 1011.9 |
| 20260510162545 | 65 | 82 | 1.0 | 3.0 | 0.00 | 0.16 | 0.00 | 72 | 1011.9 |
| 20260510161545 | 65 | 291 | 0.0 | 1.0 | 0.00 | 0.16 | 0.00 | 73 | 1012.0 |
| 20260510160525 | 65 | 67 | 1.0 | 3.0 | 0.00 | 0.16 | 0.00 | 74 | 1012.0 |
| 20260510155526 | 64 | 20 | 0.0 | 1.0 | 0.00 | 0.17 | 0.00 | 75 | 1012.1 |
| 20260510154526 | 63 | 266 | 0.0 | 1.0 | 0.00 | 0.17 | 0.00 | 77 | 1012.2 |
| 20260510153526 | 63 | 252 | 1.0 | 2.0 | 0.00 | 0.17 | 0.00 | 77 | 1012.2 |
| 20260510152526 | 63 | 281 | 1.0 | 3.0 | 0.00 | 0.17 | 0.00 | 75 | 1012.2 |
| 20260510151527 | 62 | 213 | 0.0 | 1.0 | 0.00 | 0.17 | 0.00 | 77 | 1012.2 |
| 20260510150526 | 60 | 61 | 0.0 | 2.0 | 0.00 | 0.17 | 0.00 | 81 | 1012.2 |
| 20260510145526 | 58 | 278 | 0.0 | 1.0 | 0.00 | 0.17 | 0.00 | 86 | 1012.3 |
| 20260510144547 | 57 | 0.0 | 0.0 | 0.00 | 0.18 | 0.00 | 87 | 1012.4 | |
| 20260510143547 | 56 | 282 | 0.0 | 1.0 | 0.00 | 0.18 | 0.00 | 88 | 1012.5 |
| 20260510142527 | 56 | 282 | 0.0 | 2.0 | 0.00 | 0.18 | 0.00 | 89 | 1012.7 |
| 20260510141527 | 56 | 251 | 0.0 | 1.0 | 0.00 | 0.18 | 0.00 | 91 | 1012.7 |
| 20260510140527 | 55 | 222 | 1.0 | 2.0 | 0.00 | 0.18 | 0.00 | 93 | 1012.7 |
| 20260510135527 | 55 | 187 | 0.0 | 2.0 | 0.00 | 0.19 | 0.00 | 94 | 1012.7 |
| 20260510134528 | 54 | 247 | 1.0 | 2.0 | 0.00 | 0.19 | 0.00 | 96 | 1012.7 |
| 20260510133528 | 54 | 197 | 0.0 | 1.0 | 0.00 | 0.19 | 0.00 | 99 | 1012.6 |
| 20260510132548 | 53 | 36 | 0.0 | 0.0 | 0.00 | 0.19 | 0.00 | 100 | 1012.5 |
| 20260510131528 | 53 | 0.0 | 0.0 | 0.00 | 0.19 | 0.00 | 99 | 1012.3 | |
| 20260510130528 | 52 | 336 | 0.0 | 1.0 | 0.00 | 0.19 | 0.00 | 99 | 1012.3 |
| 20260510125528 | 52 | 0.0 | 0.0 | 0.00 | 0.19 | 0.00 | 99 | 1012.4 | |
| 20260510124528 | 52 | 307 | 0.0 | 0.0 | 0.00 | 0.19 | 0.00 | 99 | 1012.5 |
| 20260510123528 | 51 | 0.0 | 0.0 | 0.00 | 0.21 | 0.00 | 99 | 1012.5 | |
| 20260510122528 | 51 | 348 | 0.0 | 1.0 | 0.00 | 0.21 | 0.00 | 99 | 1012.6 |
| 20260510121529 | 50 | 0.0 | 0.0 | 0.00 | 0.21 | 0.00 | 99 | 1012.6 | |
| 20260510120529 | 50 | 0.0 | 0.0 | 0.00 | 0.21 | 0.00 | 99 | 1012.5 | |
| 20260510115529 | 50 | 0.0 | 0.0 | 0.00 | 0.21 | 0.00 | 99 | 1012.5 | |
| 20260510114529 | 50 | 282 | 0.0 | 0.0 | 0.00 | 0.21 | 0.00 | 99 | 1012.5 |
| 20260510113530 | 49 | 0.0 | 0.0 | 0.00 | 0.21 | 0.00 | 99 | 1012.4 | |
| 20260510112529 | 49 | 232 | 0.0 | 1.0 | 0.00 | 0.21 | 0.00 | 99 | 1012.2 |
| 20260510111530 | 49 | 231 | 0.0 | 1.0 | 0.00 | 0.21 | 0.00 | 99 | 1012.1 |
| 20260510110530 | 49 | 299 | 0.0 | 1.0 | 0.00 | 0.21 | 0.00 | 99 | 1012.1 |
| 20260510105530 | 48 | 240 | 0.0 | 1.0 | 0.00 | 0.21 | 0.00 | 99 | 1012.0 |
| 20260510104615 | 48 | 240 | 0.0 | 1.0 | 0.00 | 0.21 | 0.00 | 99 | 1011.8 |
| 20260510103515 | 48 | 0.0 | 0.0 | 0.00 | 0.21 | 0.00 | 99 | 1011.8 | |
| 20260510102516 | 48 | 281 | 0.0 | 1.0 | 0.00 | 0.21 | 0.00 | 99 | 1011.6 |
| 20260510101515 | 47 | 258 | 0.0 | 2.0 | 0.00 | 0.21 | 0.00 | 99 | 1011.5 |
| 20260510100515 | 47 | 198 | 0.0 | 1.0 | 0.00 | 0.21 | 0.00 | 99 | 1011.4 |
| 20260510095516 | 47 | 314 | 0.0 | 1.0 | 0.00 | 0.21 | 0.00 | 99 | 1011.5 |
| 20260510094516 | 47 | 263 | 0.0 | 2.0 | 0.00 | 0.21 | 0.00 | 99 | 1011.3 |
| 20260510093516 | 47 | 130 | 0.0 | 0.0 | 0.00 | 0.21 | 0.00 | 99 | 1011.3 |
| 20260510092516 | 47 | 288 | 0.0 | 1.0 | 0.00 | 0.21 | 0.00 | 99 | 1011.4 |
| 20260510091516 | 47 | 0.0 | 0.0 | 0.00 | 0.21 | 0.00 | 99 | 1011.4 | |
| 20260510090516 | 47 | 0.0 | 0.0 | 0.00 | 0.21 | 0.00 | 99 | 1011.3 | |
| 20260510085517 | 47 | 323 | 0.0 | 1.0 | 0.00 | 0.21 | 0.00 | 99 | 1011.3 |
| 20260510084517 | 47 | 314 | 0.0 | 0.0 | 0.00 | 0.21 | 0.00 | 99 | 1011.5 |
| 20260510083517 | 47 | 6 | 0.0 | 0.0 | 0.00 | 0.21 | 0.00 | 99 | 1011.3 |
| 20260510082537 | 47 | 292 | 0.0 | 1.0 | 0.00 | 0.21 | 0.00 | 99 | 1011.4 |
| 20260510081537 | 47 | 331 | 0.0 | 0.0 | 0.00 | 0.21 | 0.00 | 99 | 1011.3 |
| 20260510080517 | 47 | 12 | 0.0 | 1.0 | 0.00 | 0.21 | 0.00 | 99 | 1011.2 |
| 20260510075517 | 47 | 301 | 0.0 | 1.0 | 0.00 | 0.21 | 0.00 | 99 | 1011.2 |
| 20260510074517 | 47 | 0.0 | 0.0 | 0.00 | 0.21 | 0.00 | 99 | 1011.3 | |
| 20260510073518 | 47 | 0.0 | 0.0 | 0.00 | 0.21 | 0.00 | 99 | 1011.2 | |
| 20260510072518 | 47 | 0.0 | 0.0 | 0.00 | 0.21 | 0.00 | 99 | 1011.1 | |
| 20260510071518 | 47 | 335 | 0.0 | 1.0 | 0.00 | 0.21 | 0.00 | 99 | 1011.0 |
| 20260510070518 | 47 | 30 | 0.0 | 1.0 | 0.00 | 0.21 | 0.00 | 99 | 1011.1 |
| 20260510065518 | 47 | 332 | 0.0 | 1.0 | 0.00 | 0.21 | 0.00 | 99 | 1011.2 |
| 20260510064519 | 47 | 0.0 | 0.0 | 0.00 | 0.21 | 0.00 | 99 | 1011.2 | |
| 20260510063559 | 46 | 0.0 | 0.0 | 0.00 | 0.21 | 0.00 | 99 | 1011.2 | |
| 20260510062519 | 46 | 0.0 | 0.0 | 0.00 | 0.21 | 0.00 | 99 | 1011.1 | |
| 20260510061559 | 46 | 0.0 | 0.0 | 0.00 | 0.21 | 0.00 | 99 | 1011.4 | |
| 20260510060519 | 46 | 0.0 | 0.0 | 0.00 | 0.21 | 0.00 | 99 | 1011.4 | |
| 20260510055519 | 46 | 0.0 | 0.0 | 0.00 | 0.21 | 0.00 | 99 | 1011.2 | |
| 20260510054519 | 46 | 331 | 0.0 | 0.0 | 0.00 | 0.21 | 0.00 | 99 | 1011.4 |
| 20260510053520 | 46 | 0.0 | 0.0 | 0.00 | 0.21 | 0.00 | 99 | 1011.6 | |
| 20260510052520 | 46 | 0.0 | 0.0 | 0.00 | 0.21 | 0.00 | 99 | 1011.7 | |
| 20260510051520 | 46 | 328 | 0.0 | 1.0 | 0.00 | 0.21 | 0.00 | 99 | 1011.9 |
| 20260510050540 | 46 | 0.0 | 0.0 | 0.00 | 0.21 | 0.00 | 99 | 1011.8 | |
| 20260510045520 | 46 | 0.0 | 0.0 | 0.00 | 0.21 | 0.00 | 100 | 1011.8 | |
| 20260510044520 | 46 | 0.0 | 0.0 | 0.00 | 0.21 | 0.00 | 100 | 1011.8 | |
| 20260510043520 | 46 | 19 | 0.0 | 0.0 | 0.00 | 0.21 | 0.00 | 100 | 1011.8 |
| 20260510042520 | 46 | 305 | 0.0 | 0.0 | 0.00 | 0.21 | 0.00 | 100 | 1011.8 |
| 20260510041520 | 46 | 0.0 | 0.0 | 0.00 | 0.21 | 0.00 | 100 | 1011.8 | |
| 20260510040521 | 46 | 0.0 | 0.0 | 0.00 | 0.21 | 0.00 | 100 | 1011.7 | |
| 20260510035521 | 46 | 0.0 | 0.0 | 0.00 | 0.21 | 0.21 | 100 | 1011.8 | |
| 20260510034521 | 46 | 0.0 | 0.0 | 0.00 | 0.21 | 0.21 | 100 | 1012.1 | |
| 20260510033521 | 46 | 0.0 | 0.0 | 0.00 | 0.21 | 0.21 | 100 | 1012.2 | |
| 20260510032541 | 46 | 0.0 | 0.0 | 0.00 | 0.21 | 0.21 | 100 | 1012.2 | |
| 20260510031521 | 46 | 334 | 0.0 | 1.0 | 0.00 | 0.21 | 0.21 | 100 | 1012.4 |
| 20260510030521 | 46 | 0.0 | 0.0 | 0.00 | 0.21 | 0.21 | 100 | 1012.2 | |
| 20260510025522 | 46 | 0.0 | 0.0 | 0.00 | 0.21 | 0.21 | 100 | 1012.4 | |
| 20260510024542 | 46 | 0.0 | 0.0 | 0.00 | 0.21 | 0.21 | 100 | 1012.7 | |
| 20260510023522 | 46 | 13 | 0.0 | 1.0 | 0.00 | 0.21 | 0.21 | 100 | 1012.4 |
| 20260510022522 | 46 | 0.0 | 0.0 | 0.00 | 0.21 | 0.21 | 100 | 1012.5 | |
| 20260510021522 | 46 | 337 | 0.0 | 0.0 | 0.00 | 0.21 | 0.21 | 100 | 1012.6 |
| 20260510020523 | 46 | 35 | 0.0 | 1.0 | 0.00 | 0.21 | 0.21 | 99 | 1012.7 |
| 20260510015522 | 46 | 0.0 | 0.0 | 0.00 | 0.21 | 0.21 | 99 | 1012.8 | |
| 20260510014523 | 46 | 0.0 | 0.0 | 0.00 | 0.21 | 0.21 | 99 | 1012.8 | |
| 20260510013543 | 46 | 22 | 0.0 | 1.0 | 0.00 | 0.21 | 0.21 | 99 | 1012.7 |
| 20260510012523 | 46 | 0.0 | 0.0 | 0.00 | 0.21 | 0.21 | 99 | 1012.6 | |
| 20260510011523 | 46 | 18 | 0.0 | 1.0 | 0.00 | 0.21 | 0.21 | 99 | 1012.5 |
| 20260510010523 | 46 | 0.0 | 0.0 | 0.00 | 0.21 | 0.21 | 99 | 1012.5 | |
| 20260510005523 | 46 | 224 | 0.0 | 1.0 | 0.00 | 0.21 | 0.21 | 99 | 1012.7 |
| 20260510004524 | 46 | 328 | 0.0 | 1.0 | 0.00 | 0.21 | 0.21 | 99 | 1012.6 |
| 20260510003524 | 46 | 0.0 | 0.0 | 0.00 | 0.21 | 0.21 | 99 | 1012.5 | |
| 20260510002524 | 45 | 0.0 | 0.0 | 0.00 | 0.21 | 0.21 | 99 | 1012.6 | |
| 20260510001604 | 45 | 0.0 | 0.0 | 0.00 | 0.21 | 0.21 | 99 | 1012.6 | |
| 20260510000524 | 45 | 0.0 | 0.0 | 0.00 | 0.21 | 0.21 | 99 | 1012.6 | |
| 20260509235524 | 45 | 293 | 0.0 | 1.0 | 0.00 | 0.21 | 0.21 | 99 | 1012.5 |
| 20260509234525 | 45 | 0.0 | 0.0 | 0.00 | 0.21 | 0.21 | 99 | 1012.3 | |
| 20260509233524 | 45 | 0.0 | 0.0 | 0.00 | 0.21 | 0.21 | 99 | 1012.3 | |
| 20260509232525 | 45 | 0.0 | 0.0 | 0.00 | 0.21 | 0.21 | 98 | 1012.2 | |
| 20260509231525 | 46 | 44 | 0.0 | 1.0 | 0.00 | 0.21 | 0.21 | 98 | 1012.2 |